Bolingbrook's Clow International Airport

Jump to: basic info | weather | frequencies | runways | comments

Related pages: nearby airports | nearby navaids | notams | map

Basic information (top)

Codes: K1C5 1C5
Location: lon 41.695999, lat -88.129204, elev 670 ft / 204 m msl
Status: small_airport
Scheduled airline service: no
Links: Wikipedia Mobile

Weather (top)

Current conditions for Lewis University Airport 6nm (10km) SSE (rec'd 2014/07/26 10:35Z):

KLOT 261035Z AUTO 20006KT 10SM OVC036 20/16 A2986

Airport forecast for Dupage Airport 14nm (26km) NNW (rec'd 2014/07/26 06:33Z):

TAF KDPA 260531Z 2606/2706 20007KT P6SM OVC035 
     FM260700 19007KT P6SM VCSH OVC025 
     FM261100 19007KT P6SM OVC022 
     FM261600 20007KT P6SM BKN035 
     FM261800 25007KT P6SM SCT035 BKN120 
     FM270000 11006KT P6SM BKN120 
     FM270400 24004KT 6SM BR BKN100

Frequencies (top)

Verify before use: may be inaccurate or out of date.

A/D: 119.35 MHz (CHICAGO APP/DEP)
CTAF: 122.9 MHz (CTAF)

Runways (top)

18/36: 3,362 x 50 ft (1,025 x 15 m) — other (ASPH-G) — lighted — threshold 18 displaced 190 ft (58 m) — threshold 36 displaced 130 ft (40 m)

Latest comments (top)

1C5 - Clow International - First Starts: I started primary training here a long ... [read]

More... (top)

See also NOTAMs and nearby airports and navaids, or visit the Bolingbrook's Clow International Airport page at the main OurAirports website..